Tracking 35331 objects as of 14-Sep-2026
HD Live streaming from Space Station
objects crossing your sky now

PSLV DEB


PSLV DEB is no longer on orbit


NORAD ID: 27183
Int'l Code: 2001-049EB
Launch date: October 22, 2001
Source: India (IND)
Launch site: SRIHARIKOTA (SRI)
Decay date: 2002-03-04

Note: This is SATELLITE DEBRIS
Your satellite tracking list
Your tracking list is empty




NASA's NSSDC Master Catalog

Two Line Element Set (TLE):
1 27183U 01049EB  02062.21926880 +.03892386 +19578-1 +10493-1 0  9999
2 27183 097.6420 142.8883 0042144 112.9570 246.6733 15.96158413010493
Source of the keplerian elements: AFSPC